Tracking 29892 objects as of 21-Nov-2024
HD Live streaming from Space Station
objects crossing your sky now

STARLINK-3529

Track STARLINK-3529 now!
10-day predictions
STARLINK-3529 is classified as:


NORAD ID: 51724
Int'l Code: 2022-016L
Perigee: 545.7 km
Apogee: 548.1 km
Inclination: 53.2 °
Period: 95.4 minutes
Semi major axis: 6917 km
RCS: Unknown
Launch date: February 21, 2022
Source: United States (US)
Launch site: AIR FORCE EASTERN TEST RANGE (AFETR)
Your satellite tracking list
Your tracking list is empty




NASA's NSSDC Master Catalog

Two Line Element Set (TLE):
1 51724U 22016L   24325.89117935 -.00000011  00000-0  17437-4 0  9998
2 51724  53.2170 296.0840 0001779  97.9116 262.2078 15.08837213152963
Source of the keplerian elements: AFSPC